• en Suisse
  • Liste des pays
  • À 7 jours
  • Température de l'eau
  • Carte satellitaire
  • Carte météo
  • Widgets météo
  • user-avatar
    Se connecter

    Météo par heure à Bagdad

    Ce jour, 21 Octobre, Dimanche

    Heure Température Précipitation Vent Pression Humidité
    00:00 +32°C° 0 mm 4 m/s 756 mmHg 31%
    01:00 +30°C° 0.2 mm 4 m/s 756 mmHg 31%
    02:00 +30°C° 0.2 mm 4 m/s 756 mmHg 32%
    03:00 +29°C° 0.2 mm 4 m/s 755 mmHg 32%
    04:00 +29°C° 0 mm 5 m/s 755 mmHg 32%
    05:00 +29°C° 0 mm 5 m/s 755 mmHg 32%
    06:00 +28°C° 0 mm 5 m/s 755 mmHg 31%
    07:00 +30°C° 0.1 mm 6 m/s 755 mmHg 29%
    08:00 +32°C° 0.1 mm 7 m/s 755 mmHg 27%
    09:00 +33°C° 0 mm 8 m/s 756 mmHg 24%
    10:00 +34°C° 0.4 mm 8 m/s 756 mmHg 23%
    11:00 +35°C° 0.4 mm 8 m/s 756 mmHg 23%
    12:00 +37°C° 0.4 mm 8 m/s 755 mmHg 22%
    13:00 +36°C° 1.1 mm 7 m/s 755 mmHg 23%
    14:00 +36°C° 1.1 mm 5 m/s 755 mmHg 24%
    15:00 +35°C° 0 mm 5 m/s 755 mmHg 26%
    16:00 +34°C° 1.4 mm 6 m/s 755 mmHg 30%
    17:00 +32°C° 1.4 mm 7 m/s 755 mmHg 34%
    18:00 +31°C° 1.4 mm 8 m/s 755 mmHg 38%
    19:00 +31°C° 0.4 mm 8 m/s 755 mmHg 38%
    20:00 +31°C° 0.4 mm 8 m/s 755 mmHg 38%
    21:00 +31°C° 0.4 mm 8 m/s 755 mmHg 38%
    22:00 +31°C° 0.1 mm 8 m/s 755 mmHg 37%
    23:00 +31°C° 0.1 mm 8 m/s 755 mmHg 37%

    Demain, 22 Octobre, Lundi

    Heure Température Précipitation Vent Pression Humidité
    00:00 +31°C° 0.1 mm 8 m/s 755 mmHg 37%
    01:00 +31°C° 0.2 mm 8 m/s 755 mmHg 38%
    02:00 +29°C° 0.2 mm 7 m/s 755 mmHg 40%
    03:00 +29°C° 0.2 mm 7 m/s 755 mmHg 41%
    04:00 +29°C° 0.3 mm 7 m/s 756 mmHg 44%
    05:00 +28°C° 0.3 mm 8 m/s 756 mmHg 47%
    06:00 +28°C° 0.3 mm 9 m/s 756 mmHg 51%
    07:00 +28°C° 0 mm 9 m/s 757 mmHg 48%
    08:00 +29°C° 0 mm 10 m/s 757 mmHg 46%
    09:00 +31°C° 0 mm 10 m/s 757 mmHg 44%
    10:00 +32°C° 0 mm 9 m/s 757 mmHg 41%
    11:00 +33°C° 0 mm 8 m/s 757 mmHg 39%
    12:00 +35°C° 0 mm 7 m/s 757 mmHg 36%
    13:00 +35°C° 0 mm 6 m/s 757 mmHg 34%
    14:00 +35°C° 0 mm 5 m/s 757 mmHg 33%
    15:00 +36°C° 0 mm 5 m/s 756 mmHg 31%
    16:00 +35°C° 0 mm 4 m/s 756 mmHg 33%
    17:00 +34°C° 0 mm 4 m/s 756 mmHg 36%
    18:00 +33°C° 0 mm 4 m/s 756 mmHg 38%
    19:00 +32°C° 0.1 mm 4 m/s 757 mmHg 40%
    20:00 +30°C° 0.1 mm 3 m/s 757 mmHg 42%
    21:00 +30°C° 0.1 mm 3 m/s 757 mmHg 44%
    22:00 +29°C° 0 mm 2 m/s 757 mmHg 45%
    23:00 +29°C° 0 mm 2 m/s 758 mmHg 46%

    Après-demain, 23 Octobre, Mardi

    Heure Température Précipitation Vent Pression Humidité
    00:00 +28°C° 0 mm 2 m/s 758 mmHg 48%
    01:00 +28°C° 0 mm 2 m/s 758 mmHg 49%
    02:00 +28°C° 0 mm 2 m/s 758 mmHg 51%
    03:00 +27°C° 0 mm 2 m/s 758 mmHg 52%
    04:00 +27°C° 0 mm 2 m/s 758 mmHg 54%
    05:00 +27°C° 0 mm 2 m/s 758 mmHg 55%
    06:00 +26°C° 0 mm 2 m/s 758 mmHg 56%
    07:00 +27°C° 0 mm 2 m/s 758 mmHg 53%
    08:00 +28°C° 0 mm 2 m/s 758 mmHg 50%
    09:00 +29°C° 0 mm 2 m/s 759 mmHg 47%
    10:00 +30°C° 0 mm 2 m/s 759 mmHg 42%
    11:00 +31°C° 0 mm 2 m/s 758 mmHg 38%
    12:00 +32°C° 0 mm 2 m/s 758 mmHg 33%
    13:00 +34°C° 0 mm 3 m/s 758 mmHg 31%
    14:00 +34°C° 0 mm 3 m/s 757 mmHg 28%
    15:00 +35°C° 0 mm 4 m/s 757 mmHg 26%
    16:00 +34°C° 0 mm 3 m/s 757 mmHg 28%
    17:00 +33°C° 0 mm 3 m/s 757 mmHg 30%
    18:00 +31°C° 0 mm 2 m/s 757 mmHg 33%
    19:00 +31°C° 0 mm 2 m/s 757 mmHg 34%
    20:00 +30°C° 0 mm 1 m/s 757 mmHg 36%
    21:00 +30°C° 0 mm 1 m/s 757 mmHg 38%
    22:00 +29°C° 0 mm 1 m/s 757 mmHg 39%
    23:00 +29°C° 0 mm 1 m/s 757 mmHg 41%

    24 Octobre, Mercredi

    Heure Température Précipitation Vent Pression Humidité
    00:00 +28°C° 0 mm 1 m/s 757 mmHg 42%
    01:00 +28°C° 0 mm 1 m/s 757 mmHg 42%
    02:00 +28°C° 0 mm 1 m/s 756 mmHg 43%
    03:00 +28°C° 0 mm 1 m/s 756 mmHg 43%
    04:00 +27°C° 0 mm 2 m/s 756 mmHg 42%
    05:00 +27°C° 0 mm 2 m/s 756 mmHg 42%
    06:00 +27°C° 0 mm 3 m/s 756 mmHg 42%
    07:00 +28°C° 0 mm 3 m/s 756 mmHg 38%
    08:00 +30°C° 0 mm 3 m/s 756 mmHg 35%
    09:00 +32°C° 0 mm 4 m/s 756 mmHg 31%
    10:00 +33°C° 0 mm 4 m/s 756 mmHg 28%
    11:00 +35°C° 0 mm 4 m/s 756 mmHg 24%
    12:00 +36°C° 0 mm 4 m/s 756 mmHg 20%
    13:00 +36°C° 0 mm 3 m/s 755 mmHg 19%
    14:00 +36°C° 0 mm 3 m/s 754 mmHg 18%
    15:00 +37°C° 0 mm 2 m/s 754 mmHg 16%
    16:00 +36°C° 0 mm 2 m/s 754 mmHg 18%
    17:00 +34°C° 0 mm 2 m/s 753 mmHg 21%
    18:00 +32°C° 0 mm 2 m/s 753 mmHg 23%
    19:00 +32°C° 0 mm 2 m/s 753 mmHg 23%
    20:00 +33°C° 0 mm 3 m/s 753 mmHg 24%
    21:00 +32°C° 0 mm 4 m/s 753 mmHg 24%
    22:00 +32°C° 0 mm 4 m/s 753 mmHg 25%
    23:00 +32°C° 0 mm 4 m/s 753 mmHg 25%

    25 Octobre, Jeudi

    Heure Température Précipitation Vent Pression Humidité
    00:00 +30°C° 0 mm 5 m/s 752 mmHg 26%
    01:00 +30°C° 0 mm 5 m/s 752 mmHg 26%
    02:00 +29°C° 0 mm 5 m/s 752 mmHg 27%
    03:00 +29°C° 0 mm 5 m/s 752 mmHg 28%
    04:00 +29°C° 0 mm 5 m/s 752 mmHg 29%
    05:00 +28°C° 0 mm 5 m/s 752 mmHg 31%
    06:00 +28°C° 0 mm 5 m/s 752 mmHg 32%
    07:00 +29°C° 0 mm 6 m/s 752 mmHg 30%
    08:00 +32°C° 0 mm 8 m/s 753 mmHg 28%
    09:00 +33°C° 0 mm 9 m/s 753 mmHg 26%
    10:00 +34°C° 0 mm 9 m/s 752 mmHg 24%
    11:00 +37°C° 0 mm 8 m/s 752 mmHg 21%
    12:00 +39°C° 0 mm 8 m/s 751 mmHg 19%
    13:00 +39°C° 0 mm 8 m/s 751 mmHg 18%
    14:00 +40°C° 0 mm 7 m/s 750 mmHg 18%
    15:00 +40°C° 0 mm 7 m/s 750 mmHg 18%
    16:00 +39°C° 0 mm 6 m/s 750 mmHg 19%
    17:00 +37°C° 0 mm 4 m/s 750 mmHg 21%
    18:00 +35°C° 0 mm 3 m/s 750 mmHg 23%
    19:00 +35°C° 0 mm 4 m/s 750 mmHg 23%
    20:00 +35°C° 0 mm 4 m/s 750 mmHg 23%
    21:00 +34°C° 0 mm 5 m/s 751 mmHg 24%
    22:00 +34°C° 0 mm 5 m/s 751 mmHg 24%
    23:00 +33°C° 0 mm 6 m/s 751 mmHg 25%

    26 Octobre, Vendredi

    Heure Température Précipitation Vent Pression Humidité
    00:00 +33°C° 0 mm 6 m/s 751 mmHg 25%
    01:00 +32°C° 0.1 mm 5 m/s 751 mmHg 27%
    02:00 +32°C° 0.1 mm 5 m/s 751 mmHg 30%
    03:00 +30°C° 0.1 mm 4 m/s 751 mmHg 32%
    04:00 +30°C° 0.2 mm 4 m/s 752 mmHg 34%
    05:00 +29°C° 0.2 mm 3 m/s 753 mmHg 36%
    06:00 +29°C° 0.2 mm 3 m/s 753 mmHg 38%
    07:00 +30°C° 0.1 mm 2 m/s 754 mmHg 37%
    08:00 +30°C° 0.1 mm 2 m/s 755 mmHg 35%
    09:00 +31°C° 0.1 mm 2 m/s 755 mmHg 34%
    10:00 +32°C° 0 mm 2 m/s 755 mmHg 31%
    11:00 +34°C° 0 mm 2 m/s 755 mmHg 28%
    12:00 +34°C° 0 mm 3 m/s 755 mmHg 25%
    13:00 +34°C° 0 mm 4 m/s 755 mmHg 25%
    14:00 +34°C° 0 mm 5 m/s 754 mmHg 25%
    15:00 +33°C° 0 mm 6 m/s 754 mmHg 26%
    16:00 +33°C° 0 mm 6 m/s 755 mmHg 27%
    17:00 +32°C° 0 mm 5 m/s 755 mmHg 29%
    18:00 +30°C° 0 mm 5 m/s 756 mmHg 31%
    19:00 +30°C° 0 mm 4 m/s 756 mmHg 33%
    20:00 +29°C° 0 mm 3 m/s 757 mmHg 34%
    21:00 +29°C° 0 mm 1 m/s 758 mmHg 35%
    22:00 +29°C° 0 mm 2 m/s 758 mmHg 36%
    23:00 +28°C° 0 mm 3 m/s 758 mmHg 37%
    Voir plus